Weather History for Savannah, GA

Change the Weather History Date:

Saturday, January 11, 2014

  Actual Average Record
Temperature  
Mean Temperature 68 °F 49 °F  
Max Temperature 75 °F 60 °F 83 °F (1949)
Min Temperature 60 °F 38 °F 12 °F (1982)
Degree Days  
Heating Degree Days 0 16  
Month to date heating degree days 190 176  
Since 1 July heating degree days 716 866  
Cooling Degree Days 3 0  
Month to date cooling degree days 3 0  
Year to date cooling degree days 3 0  
Growing Degree Days 18 (Base 50)    
Moisture  
Dew Point 63 °F    
Average Humidity 90    
Maximum Humidity 100    
Minimum Humidity 79    
Precipitation  
Precipitation 0.17 in 0.12 in 1.74 in (1908)
Month to date precipitation 1.47 1.19  
Year to date precipitation 1.47 1.19  
Sea Level Pressure  
Sea Level Pressure 29.91 in    
Wind  
Wind Speed 9 mph (SSW)    
Max Wind Speed 21 mph    
Max Gust Speed 29 mph    
Visibility 5 miles    
Events Fog , Rain    
T = Trace of Precipitation, MM = Missing Value Source: NWS Daily Summary

Daily Weather History Graph

Daily Weather History Graph

Search for Another Location

Airport:

Trip Planner

Search our weather history database for the weather conditions in past years. The results will help you decide how hot, cold, wet, or windy it might be!

Date:

Astronomy

Jan. 11, 2014 Rise Set
Actual Time 7:26 AM EST 5:39 PM EST
Civil Twilight 6:59 AM EST 6:06 PM EST
Nautical Twilight 6:29 AM EST 6:36 PM EST
Astronomical Twilight 6:00 AM EST 7:05 PM EST
Moon 2:20 PM EST (1/11) 3:33 AM EST (1/11)
Length of Visible Light 11h 06m
Length of Day
10h 12m
Waxing Gibbous, 83% of the Moon is Illuminated
Jan 11
Waxing Gibbous
Jan 15
Full
Jan 24
Last Quarter
Jan 30
New
Feb 6
First Quarter

Hourly Weather History & Observations

Time (EST) Temp. Dew Point Humidity Pressure Visibility Wind Dir Wind Speed Gust Speed Precip Events Conditions
12:12 AM 60.8 °F 59.0 °F 94% 30.08 in 3.0 mi South 4.6 mph - N/A   Overcast
12:36 AM 62.6 °F 60.8 °F 94% 30.06 in 1.8 mi SSW 3.5 mph - N/A   Overcast
12:46 AM 62.6 °F 60.8 °F 94% 30.06 in 1.0 mi South 4.6 mph - N/A   Mist
12:53 AM 63.0 °F 61.0 °F 93% 30.06 in 1.0 mi South 4.6 mph - N/A   Mist
1:00 AM 62.6 °F 60.8 °F 94% 30.05 in 0.8 mi South 5.8 mph - N/A   Mist
1:53 AM 63.0 °F 61.0 °F 93% 30.04 in 0.8 mi South 6.9 mph - N/A   Mist
2:53 AM 63.0 °F 62.1 °F 97% 30.02 in 0.5 mi South 4.6 mph - N/A Fog Fog
3:53 AM 64.9 °F 63.0 °F 93% 30.00 in 0.8 mi South 5.8 mph - N/A   Mist
4:37 AM 66.2 °F 64.4 °F 94% 29.99 in 1.5 mi South 10.4 mph - N/A   Overcast
4:43 AM 66.2 °F 64.4 °F 94% 29.99 in 3.0 mi South 9.2 mph - N/A   Overcast
4:53 AM 66.0 °F 64.0 °F 93% 29.99 in 7.0 mi South 10.4 mph - N/A   Overcast
5:53 AM 66.0 °F 64.0 °F 93% 29.98 in 4.0 mi South 12.7 mph - N/A   Overcast
6:45 AM 64.4 °F 62.6 °F 94% 29.97 in 1.5 mi South 8.1 mph - N/A   Overcast
6:53 AM 64.0 °F 62.1 °F 93% 29.97 in 1.5 mi South 8.1 mph - N/A   Overcast
7:17 AM 64.4 °F 62.6 °F 94% 29.97 in 1.0 mi South 8.1 mph - N/A   Overcast
7:53 AM 64.9 °F 63.0 °F 93% 29.98 in 1.0 mi South 6.9 mph - N/A   Overcast
8:53 AM 66.0 °F 64.0 °F 93% 29.97 in 1.0 mi South 8.1 mph - N/A   Overcast
9:43 AM 66.2 °F 64.4 °F 94% 29.96 in 0.5 mi South 10.4 mph - N/A Fog Fog
9:53 AM 66.9 °F 64.9 °F 93% 29.96 in 0.5 mi South 8.1 mph - N/A Fog Fog
10:38 AM 69.8 °F 66.2 °F 88% 29.94 in 1.5 mi South 13.8 mph - N/A   Overcast
10:50 AM 69.8 °F 66.2 °F 88% 29.94 in 2.0 mi South 10.4 mph 19.6 mph N/A   Overcast
10:53 AM 69.1 °F 66.0 °F 90% 29.94 in 2.0 mi South 12.7 mph - N/A   Overcast
11:07 AM 69.8 °F 66.2 °F 88% 29.93 in 5.0 mi South 12.7 mph - N/A   Overcast
11:24 AM 69.8 °F 66.2 °F 88% 29.92 in 10.0 mi SSW 12.7 mph - N/A   Overcast
11:53 AM 73.0 °F 66.9 °F 81% 29.89 in 10.0 mi SSW 13.8 mph 21.9 mph N/A   Overcast
12:44 PM 73.4 °F 66.2 °F 78% 29.80 in 10.0 mi South 15.0 mph 23.0 mph 0.00 in   Overcast
12:53 PM 73.0 °F 66.9 °F 81% 29.81 in 10.0 mi SSW 13.8 mph - 0.00 in   Overcast
1:53 PM 73.9 °F 66.9 °F 79% 29.79 in 10.0 mi South 11.5 mph - N/A   Overcast
2:53 PM 72.0 °F 66.9 °F 84% 29.74 in 10.0 mi SSE 10.4 mph - N/A   Overcast
3:25 PM 71.6 °F 66.2 °F 83% 29.76 in 10.0 mi South 10.4 mph - 0.00 in   Overcast
3:53 PM 71.1 °F 66.0 °F 84% 29.75 in 10.0 mi South 5.8 mph - 0.00 in   Overcast
4:04 PM 69.8 °F 66.2 °F 88% 29.75 in 10.0 mi South 5.8 mph - N/A   Overcast
4:18 PM 71.6 °F 66.2 °F 83% 29.78 in 1.8 mi WNW 13.8 mph 20.7 mph 0.01 in Rain Rain
4:29 PM 69.8 °F 62.6 °F 78% 29.77 in 4.0 mi WSW 18.4 mph 24.2 mph 0.13 in Rain Light Rain
4:53 PM 66.0 °F 61.0 °F 84% 29.78 in 10.0 mi WSW 15.0 mph 24.2 mph 0.14 in Rain Light Rain
5:53 PM 64.9 °F 62.1 °F 90% 29.78 in 10.0 mi West 5.8 mph - 0.03 in   Mostly Cloudy
6:53 PM 64.9 °F 62.1 °F 90% 29.80 in 10.0 mi SW 8.1 mph - N/A   Mostly Cloudy
7:53 PM 64.9 °F 61.0 °F 87% 29.81 in 10.0 mi SW 10.4 mph - N/A   Mostly Cloudy
8:53 PM 64.0 °F 61.0 °F 90% 29.83 in 10.0 mi SW 6.9 mph - N/A   Mostly Cloudy
9:45 PM 64.4 °F 60.8 °F 88% 29.84 in 10.0 mi WSW 10.4 mph - N/A   Mostly Cloudy
9:53 PM 64.0 °F 60.1 °F 87% 29.84 in 10.0 mi WSW 9.2 mph - N/A   Mostly Cloudy
10:53 PM 63.0 °F 57.0 °F 81% 29.85 in 10.0 mi SW 10.4 mph - 0.00 in   Overcast
11:53 PM 62.1 °F 53.1 °F 72% 29.89 in 10.0 mi West 15.0 mph 23.0 mph N/A   Overcast